VE7VT Weather Reports


time (UTC)temp
C
wind
direction
speed
KPH
gust
KPH
rain 1hr
cm
rain 24hr
cm
rain mn
cm
humidity
%
barometer
mb
20260504140517 13 182 1.6 3.2 0.00 0.00 0.00 70 1010.3
20260504130518 12 327 3.2 3.2 0.00 0.00 0.00 71 1009.9
20260504110517 14 212 3.2 6.4 0.00 0.00 0.00 62 1009.9
20260504100516 15 236 4.8 4.8 0.00 0.00 0.00 57 1009.7
20260504081518 17 230 3.2 4.8 0.00 0.00 0.00 49 1009.5
20260504080518 17 248 4.8 4.8 0.00 0.00 0.00 50 1009.5
20260504050516 20 250 3.2 6.4 0.00 0.00 0.00 45 1009.4
20260504045536 20 285 3.2 4.8 0.00 0.00 0.00 44 1009.4
20260504044516 20 277 3.2 3.2 0.00 0.00 0.00 42 1009.4
20260504043516 21 226 1.6 4.8 0.00 0.00 0.00 43 1009.4
20260504042515 21 253 1.6 3.2 0.00 0.00 0.00 41 1009.4
20260504041516 21 258 1.6 3.2 0.00 0.00 0.00 39 1009.4
20260504040516 21 277 1.6 3.2 0.00 0.00 0.00 38 1009.3
20260504035517 22 284 1.6 3.2 0.00 0.00 0.00 37 1009.2
20260504034517 22 284 3.2 4.8 0.00 0.00 0.00 36 1009.2
20260504033517 22 286 1.6 3.2 0.00 0.00 0.00 36 1009.2
20260504032537 23 279 1.6 3.2 0.00 0.00 0.00 34 1009.2
20260504031517 23 284 1.6 3.2 0.00 0.00 0.00 32 1009.2
20260504030517 24 281 1.6 3.2 0.00 0.00 0.00 30 1009.3
20260504025518 25 286 1.6 4.8 0.00 0.00 0.00 29 1009.4
20260504024518 25 276 1.6 1.6 0.00 0.00 0.00 28 1009.4
20260504023518 25 284 1.6 4.8 0.00 0.00 0.00 27 1009.4
20260504022518 25 285 1.6 4.8 0.00 0.00 0.00 27 1009.5
20260504021518 25 284 1.6 3.2 0.00 0.00 0.00 26 1009.5
20260504020518 26 289 1.6 3.2 0.00 0.00 0.00 26 1009.6
20260504015518 27 287 1.6 4.8 0.00 0.00 0.00 26 1009.7
20260504014516 27 290 1.6 6.4 0.00 0.00 0.00 25 1009.8
20260504013516 27 290 1.6 4.8 0.00 0.00 0.00 26 1009.9
20260504012516 28 294 1.6 4.8 0.00 0.00 0.00 27 1010.0
20260504011536 28 288 1.6 4.8 0.00 0.00 0.00 27 1010.1
20260504010516 28 285 3.2 8.0 0.00 0.00 0.00 27 1010.2
20260504005516 28 288 1.6 4.8 0.00 0.00 0.00 27 1010.3
20260504004516 28 286 3.2 4.8 0.00 0.00 0.00 27 1010.4
20260504003536 28 294 1.6 4.8 0.00 0.00 0.00 27 1010.5
20260504002517 28 300 1.6 4.8 0.00 0.00 0.00 27 1010.7
20260504001521 28 293 1.6 4.8 0.00 0.00 0.00 28 1010.8
20260504000517 28 282 3.2 6.4 0.00 0.00 0.00 27 1010.9
20260503235518 28 295 3.2 6.4 0.00 0.00 0.00 27 1010.9
20260503234518 28 297 1.6 4.8 0.00 0.00 0.00 27 1011.1
20260503233517 28 298 3.2 6.4 0.00 0.00 0.00 27 1011.1
20260503232519 27 298 1.6 6.4 0.00 0.00 0.00 29 1011.3
20260503231538 27 290 3.2 8.0 0.00 0.00 0.00 29 1011.4
20260503230516 27 300 3.2 11.3 0.00 0.00 0.00 29 1011.6
20260503225515 27 290 3.2 6.4 0.00 0.00 0.00 29 1011.7
20260503224516 27 291 3.2 6.4 0.00 0.00 0.00 30 1011.8
20260503223536 27 294 3.2 9.7 0.00 0.00 0.00 31 1012.0
20260503222536 27 289 1.6 4.8 0.00 0.00 0.00 33 1012.2
20260503221537 26 290 1.6 8.0 0.00 0.00 0.00 33 1012.2
20260503220517 26 295 3.2 9.7 0.00 0.00 0.00 33 1012.3
20260503215517 26 309 1.6 8.0 0.00 0.00 0.00 33 1012.4
20260503214516 26 290 3.2 8.0 0.00 0.00 0.00 33 1012.6
20260503213517 26 296 1.6 6.4 0.00 0.00 0.00 33 1012.7
20260503212517 26 302 3.2 8.0 0.00 0.00 0.00 35 1012.7
20260503211517 26 299 3.2 8.0 0.00 0.00 0.00 35 1012.8
20260503210517 25 309 1.6 6.4 0.00 0.00 0.00 36 1012.9
20260503205517 26 297 4.8 9.7 0.00 0.00 0.00 36 1013.0
20260503204518 26 301 3.2 8.0 0.00 0.00 0.00 38 1013.2
20260503203518 26 283 1.6 4.8 0.00 0.00 0.00 39 1013.2
20260503202538 25 307 1.6 6.4 0.00 0.00 0.00 41 1013.4
20260503201556 26 291 3.2 8.0 0.00 0.00 0.00 39 1013.4
20260503200515 25 308 1.6 6.4 0.00 0.00 0.00 40 1013.6
20260503195515 25 86 3.2 6.4 0.00 0.00 0.00 42 1013.7
20260503194516 25 299 3.2 12.9 0.00 0.00 0.00 41 1013.8
20260503193516 25 295 1.6 6.4 0.00 0.00 0.00 41 1014.0
20260503192516 24 25 1.6 8.0 0.00 0.00 0.00 43 1014.1
20260503191520 23 288 3.2 8.0 0.00 0.00 0.00 42 1014.2
20260503190517 24 289 3.2 9.7 0.00 0.00 0.00 41 1014.3
20260503185517 23 75 3.2 8.0 0.00 0.00 0.00 43 1014.3
20260503184537 23 89 3.2 6.4 0.00 0.00 0.00 44 1014.4
20260503183520 23 84 3.2 9.7 0.00 0.00 0.00 44 1014.4
20260503182517 23 86 4.8 8.0 0.00 0.00 0.00 45 1014.5
20260503181518 23 91 1.6 6.4 0.00 0.00 0.00 42 1014.5
20260503180537 23 77 3.2 6.4 0.00 0.00 0.00 42 1014.6
20260503175517 23 298 1.6 6.4 0.00 0.00 0.00 40 1014.6
20260503174518 22 85 3.2 8.0 0.00 0.00 0.00 39 1014.6
20260503173518 22 94 3.2 8.0 0.00 0.00 0.00 40 1014.7
20260503172518 22 89 3.2 6.4 0.00 0.00 0.00 42 1014.8
20260503171516 21 89 3.2 6.4 0.00 0.00 0.00 44 1014.9
20260503170515 21 91 1.6 4.8 0.00 0.00 0.00 46 1014.9
20260503150518 18 189 3.2 4.8 0.00 0.00 0.00 52 1015.4